Regional Weather Roundup
Issued by NWS

Home | Current Version | Previous Version | Text Only | Print | Product List | Glossary On
Versions: 1 2 3 4 5 6 7 8 9 10 11 12 13 14 15 16 17 18 19 20 21 22 23 24 25 26 27 28 29 30 31 32 33 34 35 36 37 38 39 40 41 42 43 44 45 46 47 48 49 50
000
ASUS45 KBOU 220210
RWRCO

WEATHER ROUNDUP FOR COLORADO
NATIONAL WEATHER SERVICE DENVER/BOULDER CO
700 PM MST SUN JAN 21 2018

NOTE: "FAIR" INDICATES FEW OR NO CLOUDS BELOW 12000 FEET WITH NO
SIGNIFICANT WEATHER AND/OR OBSTRUCTIONS TO VISIBILITY.

COZ001>005-013-030-031-220300-
...NORTHWEST COLORADO...

CITY           SKY/WX    TMP DP  RH WIND       PRES   REMARKS
CRAIG          FAIR      19  13  77 W7        30.08S WCI  10
HAYDEN         FAIR     N/A N/A N/A W6        30.07R
MEEKER         CLOUDY    22  15  75 NW7       30.09R WCI  13
RABBIT EARS PA LGT SNOW   5   3  92 NW8G16    29.88R WCI  -8
STEAMBOAT SPGS FAIR      18  12  76 W9        30.02S WCI   7
WALDEN         CLOUDY    12   5  73 NW12      29.97R WCI  -2
$$

COZ006>008-011-220300-
...WEST CENTRAL VALLEYS...

CITY           SKY/WX    TMP DP  RH WIND       PRES   REMARKS
GRAND JUNCTION MOCLDY    24  17  74 N7        30.14R WCI  16
MONTROSE       MOCLDY    24  15  68 NW13      30.12R WCI  12
EAGLE          CLOUDY    24  14  65 NE3       30.04R
RIFLE          MOCLDY    27  16  63 W8        30.10R WCI  19
DELTA          FAIR      31  16  54 W15G21    30.11R WCI  20
NUCLA          FAIR      23  12  63 NW6       30.14R WCI  16
$$

COZ017>023-064>068-220300-
...SOUTHWEST COLORADO...

CITY           SKY/WX    TMP DP  RH WIND       PRES   REMARKS
DURANGO        FAIR      22  14  71 W12       29.92R WCI  10
CORTEZ         FAIR      25  16  68 NW9       30.09R WCI  15
PAGOSA SPRINGS CLOUDY    22  21  98 CALM      29.90R
TELLURIDE      LGT SNOW  14   8  76 W12       29.99S WCI   0
WOLF CREEK PAS FAIR       1   0  92 NW9       29.84S WCI -14
$$

COZ009-010-012-014-032>034-037-058>063-220300-
...CENTRAL COLORADO...

CITY           SKY/WX    TMP DP  RH WIND       PRES   REMARKS
ASPEN          FLURRIES  18  11  74 N6        29.96R WCI  10
BUENA VISTA    FAIR      17   5  61 NW9       29.87R WCI   5
COPPER MTN     NOT AVBL
BERTHOUD PASS  CLOUDY    -2 -13  60 MISG      29.72R
COTTONWOOD PAS   N/A     19   9  63 NW8G25    29.81F WCI   9
GUNNISON       FAIR      16   9  74 S5        29.95R WCI   9
KREMMLING      LGT SNOW  23  16  74 NW3       30.00R
LEADVILLE      CLOUDY     8   3  80 N13G20    29.82R WCI  -8
MONARCH PASS   LGT SNOW   3   0  85 W22       29.88R VSB 1   WCI -19
SALIDA         FAIR      18  15  87 SW7       29.95R WCI   9
SUNLIGHT       CLOUDY   N/A N/A N/A MISG      29.95R
WILKERSON PASS   N/A      5   1  85 N14G22    29.77S WCI -12
$$

COZ069>075-220300-
...SAN LUIS VALLEY/SANGRE DE CRISTO MOUNTAINS...

CITY           SKY/WX    TMP DP  RH WIND       PRES   REMARKS
ALAMOSA        FAIR      22   6  50 NW18G30   29.86R WCI   7
DEL NORTE      FAIR      21   2  44 NW21G31   29.88R WCI   5
LA VETA PASS   CLOUDY    12   9  85 NW13G23     N/A  WCI  -3
SAGUACHE       FAIR      19  10  68 NW17G23   29.88R WCI   4
$$

COZ035-036-038>040-220300-
...NORTHERN COLORADO FRONT RANGE...

CITY           SKY/WX    TMP DP  RH WIND       PRES   REMARKS
DENVER INTL AP CLOUDY    24  17  74 N22G29    29.94R WCI   9
DMNS CITY PARK NOT AVBL
AURORA         CLOUDY    22  20  90 N18G26    29.93S WCI   8
FRONT RANGE AP LGT SNOW  25  21  86 NW23G35   29.93S WCI  10
ERIE MUNI ARPT CLOUDY    26  18  70 NE10      30.00S WCI  17
BOULDER MUN AP CLOUDY    27  23  86 S5        29.95S WCI  21
CENTENNIAL     CLOUDY    22  18  85 N17G26    29.92S WCI   8
BROOMFIELD     CLOUDY    25  19  80 NW9G16    29.94S WCI  15
FORT COLLINS   CLOUDY    25  19  78 N21       29.97R WCI  11
LONGMONT       MOCLDY    27  18  71 W3        29.98R
$$

COZ041-046-047-076>085-087-088-220300-
...PIKES PEAK/PALMER DIVIDE AND SOUTHERN FOOTHILLS...

CITY           SKY/WX    TMP DP  RH WIND       PRES   REMARKS
COLO. SPRINGS  LGT SNOW  22  16  78 NW18G26   29.87R FOG     WCI   7
A. F. ACADEMY  LGT SNOW  20  15  79 N21G32    29.85R WCI   4
SCHRIEVER AFB  FLURRIES  21  15  76 N18G29    29.86R WCI   6
CHEYENNE MTN   MOCLDY    20  10  65 NW12G21   29.78R WCI   8
ELLICOTT       LGT RAIN N/A N/A N/A N22G31      N/A
FALCON         LGT SNOW  19  13  78 N20G29    29.84R WCI   3
FORT CARSON    MOCLDY    24  14  67 N20G28    29.87R WCI   9
LIMON          SNOW      21  20  96 N33G47    29.84R VSB 1/2 WCI   2
MONUMENT HILL  LGT SNOW  18  14  86 N21G31    29.87R WCI   1
CANON CITY     MOCLDY    30  18  59 W15       29.88S WCI  19
WALSENBURG     CLOUDY    25  19  80 CALM      29.90R
TRINIDAD       CLOUDY    24  19  81 N10       29.90R WCI  14
$$

COZ042>045-048>051-090-091-220300-
...NORTHEAST COLORADO...

CITY           SKY/WX    TMP DP  RH WIND       PRES   REMARKS
GREELEY ARPT   FAIR      26  19  74 NW22      29.96S WCI  12
AKRON          FOG       24  22  91 N28G41    29.87R VSB 3/4 WCI   7
BURLINGTON     FOG       27  25  92 N26G41    29.76S VSB 1/2 WCI  12
WRAY           CLOUDY    30  30 100 MISG      29.81S
YUMA           LGT SNOW  27  23  86 NW21G33   29.83S VSB 1   WCI  13
STERLING       LGT SNOW  28  27  93 N20       29.89R WCI  15
HOLYOKE        CLOUDY    30  28  93 N28G38    29.83F WCI  16
FORT MORGAN    CLOUDY    26  19  77 NW23      29.93R WCI  11
$$

COZ086-089-092>099-220300-
...SOUTHEAST COLORADO...

CITY           SKY/WX    TMP DP  RH WIND       PRES   REMARKS
PUEBLO         FAIR      30  17  58 N22G30    29.90R WCI  17
LA JUNTA       CLOUDY    30  20  66 NW18G26   29.90R WCI  18
LAMAR          LGT SNOW  29  25  85 NW23      29.82S FOG     WCI  15
SPRINGFIELD      N/A     26  24  92 NW28G38   29.79R WCI  10
$$



USA.gov is the U.S. government's official web portal to all federal, state and local government web resources and services.